Location: Platte
(43.3870°N, 98.8440°W)
Time: 08:40:50
(UTC-05:00)

Daily predictions for brighter satellites

Satellite Brightness Start Highest point End
(mag) Time Altitude Azimuth Time Altitude Azimuth Time Altitude Azimuth
Cosmos 2297 3.8 19:40:17 10° NNW 19:46:00 90° WSW 19:51:38 10° SSE
ALOS 3.7 19:44:56 10° ESE 19:48:08 19° ENE 19:51:20 10° NNE
SL-19 R/B 4.4 19:42:48 10° SSE 19:48:25 75° ENE 19:54:26 10° NNW
SKYMED 2 3.6 19:46:28 10° NNE 19:50:51 89° ESE 19:55:11 10° SSW
Cosmos 1707 3.7 19:47:17 10° NNW 19:51:03 53° W 19:54:49 10° S
Cosmos 2233 Rocket 4.4 19:45:06 10° SSW 19:51:24 76° W 19:57:46 10° N
Cosmos 1408 Rocket 3.9 19:49:14 10° N 19:53:24 41° ENE 19:57:29 10° SSE
Meteor 1-22 Rocket 4.0 19:48:19 10° S 19:53:38 73° E 19:58:55 10° NNE
Cosmos 1943 Rocket 4.2 19:53:56 10° NNE 19:54:48 10° NE 19:55:41 10° NE
Cosmos 2369 Rocket 3.6 19:51:24 10° N 19:55:30 20° NE 19:59:36 10° E
MSX 4.4 19:50:47 10° S 19:56:27 65° WSW 20:02:12 10° NNW
USA 215 3.8 19:53:24 10° ENE 19:59:25 38° SE 20:05:22 10° SSW
Meteor 1-24 Rocket 3.8 19:53:45 10° NNW 19:59:25 83° W 20:04:51 10° S
IDEFIX/ARIANE 42P 4.3 19:55:08 10° SSW 19:59:59 38° W 20:04:54 10° NNW
Cosmos 1603 4.3 19:58:08 10° S 20:03:18 36° ESE 20:08:29 10° NE
Aureole 2 Rocket 3.2 19:59:42 10° SSW 20:04:05 77° WNW 20:08:21 10° NNE
Cosmos 1470 4.4 20:03:39 10° ESE 20:05:51 15° E 20:08:04 10° NE
NOAA 12 4.1 20:02:42 10° SSE 20:07:56 77° ENE 20:13:14 10° N
SAR-Lupe-1 4.1 20:07:15 10° SSE 20:10:47 82° WSW 20:14:23 10° NNW
SJ-6B 2.9 20:09:43 10° SSE 20:13:42 84° W 20:17:48 10° NNW
Meteor 1-29 3.8 20:10:37 10° NE 20:13:44 29° E 20:16:49 10° SSE
SeaSat 1 4.3 20:15:13 11° ESE 20:15:13 11° ESE 20:15:57 10° SE
FREGAT/IRIS 2.5 20:11:03 10° SSE 20:14:09 78° ENE 20:17:14 10° N
CZ-4B DEB 4.1 20:14:31 15° ESE 20:16:14 23° ENE 20:18:52 10° NNE
Resurs 1-3 3.9 20:13:04 10° SE 20:17:15 45° ENE 20:21:26 10° N
Helios 1A 3.2 20:13:50 10° SSE 20:17:54 51° ENE 20:22:01 10° N
Cosmos 724 4.4 20:12:33 10° SSW 20:18:19 55° ESE 20:24:14 10° NE
Cosmos 2333 Rocket 4.3 20:13:38 10° WSW 20:18:36 29° NW 20:23:35 10° N
Cosmos 1674 3.8 20:15:55 10° NNE 20:19:13 25° ENE 20:21:24 16° ESE
In-Cosmos 22 4.2 20:14:05 10° N 20:19:54 77° E 20:25:38 10° SSE
Resurs 01 Rocket 1.6 20:16:10 10° SSE 20:20:34 63° ENE 20:24:59 10° N
Cosmos 1743 Rocket 4.0 20:18:23 10° N 20:22:37 41° ENE 20:26:47 10° SSE
Cosmos 1758 3.3 20:22:31 10° S 20:26:34 69° E 20:30:41 10° NNE
Abrixas 3.4 20:26:04 10° SSW 20:28:46 31° SE 20:29:31 27° ESE
Cosmos 1452 Rocket 3.6 20:25:39 10° NNW 20:30:55 80° WSW 20:36:10 10° SSE
FengYun 1-2 T 4.2 20:25:32 10° SSE 20:30:58 65° ENE 20:36:24 10° N
Cosmos 1346 3.0 20:29:48 10° N 20:32:45 55° ENE 20:34:42 18° SSE
NOSS 3-2 (A) 3.9 20:28:44 10° SW 20:34:48 65° NW 20:41:30 10° NNE
TELKOM 3 3.1 20:34:16 10° WNW 20:37:02 59° NNE 20:37:25 48° ENE
ATLAS 5 CENTAUR R/B 2.0 20:33:34 10° SW 20:38:22 77° NW 20:43:37 10° NE
Nadezhda 4 Rocket 3.9 20:37:47 10° N 20:44:05 73° E 20:50:17 10° SSE
GP-B 3.8 20:41:18 10° NNE 20:45:15 30° E 20:45:48 29° E
Meteor 2-12 Rocket 4.4 20:42:51 10° S 20:49:01 90° W 20:55:13 10° N
Cosmos 468 4.4 20:44:06 10° SSW 20:49:22 88° ESE 20:54:38 10° NNE
Meteor 1-21 Rocket 4.2 20:44:02 10° NNW 20:49:37 81° W 20:55:08 10° S
ASTEX 1 3.4 20:45:41 10° NNE 20:50:33 57° E 20:55:20 10° S
Cosmos 1420 Rocket 4.0 20:46:41 10° NNW 20:52:01 88° ENE 20:56:54 12° SSE
Cosmos 1092 Rocket 3.9 20:45:57 10° N 20:52:07 62° E 20:58:11 10° SSE
Helios 1B rocket 2.7 20:49:28 10° N 20:53:35 72° WNW 20:57:40 10° SSW
Cosmos 1544 3.1 20:50:47 10° S 20:54:30 81° W 20:58:17 10° N
SL-16 R/B 3.9 20:54:46 10° WSW 20:59:54 34° NW 21:05:06 10° N
CZ-2D R/B 3.1 21:00:07 33° SSE 21:01:46 76° ENE 21:05:39 10° N
ERBS 4.3 20:59:24 10° NNW 21:01:55 18° NNE 21:01:57 18° NNE
H-2A R/B 4.3 21:06:03 12° NE 21:06:03 12° NE 21:06:51 10° NNE
Cosmos 2026 Rocket 4.2 20:59:31 10° N 21:05:20 44° ENE 21:07:12 35° ESE
CENTAUR R/B 2.6 21:00:10 10° SSW 21:05:58 52° ESE 21:12:29 10° NE
OAO 3 Rocket 4.4 21:02:46 10° WSW 21:06:48 28° S 21:07:53 25° SSE
Cosmos 1634 Rocket 4.0 21:02:36 10° S 21:08:42 59° E 21:14:46 10° NNE
Cosmos 1048 Rocket 3.9 21:06:49 10° SSW 21:12:07 89° WNW 21:17:24 10° NNE
Cosmos-2242 4.3 21:08:12 10° SSW 21:12:21 42° WNW 21:16:34 10° N
Cosmos 1269 Rocket 4.1 21:07:34 10° SSW 21:12:51 76° WNW 21:18:09 10° NNE
NOSS 3-2 (C) 4.5 21:08:07 10° WSW 21:14:03 47° NW 21:20:34 10° NNE
H-2A R/B 2.9 21:14:25 38° S 21:15:48 75° W 21:19:41 10° NNW
FENGYUN 3A 3.8 21:10:45 10° S 21:16:06 71° WSW 21:21:31 10° NNW
ISS -1.9 21:15:01 10° SW 21:16:49 30° SW 21:16:49 30° SW
Envisat 3.7 21:19:33 37° NE 21:19:33 37° NE 21:23:46 10° N
Cosmos 2151 3.0 21:15:29 10° N 21:19:18 60° NE 21:19:18 60° NE
Cosmos 1953 4.4 21:16:29 10° SW 21:19:56 28° WNW 21:23:25 10° NNW
Cosmos 2058 4.1 21:17:54 10° N 21:20:17 29° NNE 21:20:17 29° NNE
ALOS 3.0 21:20:50 11° S 21:25:11 51° W 21:29:45 10° NNW
Gbstr 26 Del rocket 3.4 21:21:22 10° SW 21:25:36 57° SSE 21:25:36 57° SSE
Cosmos 2195 Rocket 4.4 21:21:01 10° N 21:27:22 75° E 21:30:04 37° SSE
Cosmos 1500 Rocket 4.4 21:27:17 10° NNW 21:31:35 50° W 21:34:12 22° SSW
Cosmos 1842 Rocket 4.2 21:28:07 10° SSW 21:32:21 54° W 21:36:38 10° N
Cosmos 158 Rocket 3.7 21:31:54 10° SSW 21:36:47 88° WNW 21:41:42 10° NNE
Cosmos 1943 Rocket 2.5 21:34:30 10° NNW 21:39:39 50° NE 21:39:39 50° NE
Cosmos 2369 Rocket 2.3 21:34:29 10° NNW 21:40:09 74° WSW 21:41:35 51° S
Cosmos 1470 4.1 21:37:58 10° SSW 21:41:38 38° WNW 21:45:17 10° N
Cosmos 1943 3.1 21:36:11 10° SSW 21:41:50 85° WNW 21:47:29 10° NNE
USA 215 3.5 21:37:01 14° NE 21:42:40 68° NW 21:49:07 10° WSW
Cosmos 1733 4.3 21:43:41 37° WSW 21:44:31 43° WNW 21:48:14 10° N
Cosmos 2263 4.1 21:41:37 10° NNW 21:47:27 88° WSW 21:47:58 75° SSE
SL-8 R/B 4.0 21:46:11 10° WSW 21:50:17 63° W 21:50:17 63° W
SeaSat 1 4.2 21:46:53 10° NNE 21:55:13 21° SSW 21:56:48 10° SSW
ERS-1 Rocket 3.2 21:55:23 65° NNW 21:55:23 65° NNW 21:59:41 10° NNW
Cosmos 1110 Rocket 4.2 21:57:42 10° NNW 22:02:36 68° WNW 22:02:36 68° WNW
Meteor 2-1 Rocket 4.5 22:06:24 64° N 22:06:24 64° N 22:11:22 10° N
BREEZE-M DEB (TANK) 4.4 22:06:03 10° W 22:14:39 48° NNW 22:14:55 47° N
ATLAS 5 CENTAUR R/B 4.5 22:20:36 10° WNW 22:24:01 18° NNW 22:27:39 10° NNE
Cosmos 2279 Rocket 4.5 22:30:58 55° W 22:31:20 56° WNW 22:37:26 10° N
CENTAUR R/B 3.8 22:51:05 10° WSW 22:56:53 37° NW 23:03:23 10° NNE
Cosmos 1943 Rocket 4.4 23:18:58 10° NW 23:21:11 19° WNW 23:21:11 19° WNW
